TimeEST,TemperatureF,Dew PointF,Humidity,Sea Level PressureIn,VisibilityMPH,Wind Direction,Wind SpeedMPH,Gust SpeedMPH,PrecipitationIn,Events,Conditions,WindDirDegrees,DateUTC
12:53 AM,28.9,21.9,75,29.93,10.0,WNW,11.5,-,N/A,,Overcast,290,2013-02-24 05:53:00
1:53 AM,28.9,21.0,72,29.94,10.0,WNW,12.7,-,N/A,,Overcast,290,2013-02-24 06:53:00
2:46 AM,28.4,21.2,74,29.92,10.0,WNW,9.2,-,N/A,,Overcast,290,2013-02-24 07:46:00
2:53 AM,28.9,21.9,75,29.94,10.0,WNW,9.2,-,N/A,,Overcast,290,2013-02-24 07:53:00
3:53 AM,28.9,21.9,75,29.95,10.0,West,13.8,-,N/A,,Overcast,280,2013-02-24 08:53:00
4:13 AM,28.4,21.2,74,29.93,10.0,West,13.8,-,N/A,,Overcast,280,2013-02-24 09:13:00
4:45 AM,28.4,21.2,74,29.93,10.0,West,15.0,-,N/A,,Overcast,280,2013-02-24 09:45:00
4:53 AM,28.0,21.9,78,29.96,10.0,West,12.7,-,N/A,,Overcast,280,2013-02-24 09:53:00
5:06 AM,28.4,21.2,74,29.93,10.0,WNW,15.0,-,N/A,,Overcast,290,2013-02-24 10:06:00
5:44 AM,28.4,21.2,74,29.94,10.0,WNW,12.7,-,N/A,,Overcast,290,2013-02-24 10:44:00
5:53 AM,28.0,21.0,75,29.96,10.0,WNW,13.8,-,N/A,,Overcast,290,2013-02-24 10:53:00
7:23 AM,26.6,21.2,80,29.97,10.0,West,18.4,-,N/A,,Overcast,280,2013-02-24 12:23:00
7:53 AM,27.0,21.0,78,30.00,10.0,West,17.3,-,N/A,,Overcast,270,2013-02-24 12:53:00
8:42 AM,28.4,21.2,74,29.99,10.0,West,12.7,-,N/A,,Overcast,260,2013-02-24 13:42:00
8:53 AM,27.0,21.0,78,30.02,10.0,West,16.1,-,N/A,,Overcast,270,2013-02-24 13:53:00
9:53 AM,28.0,21.0,75,30.03,6.0,WSW,15.0,-,0.00,Snow,Light Snow,250,2013-02-24 14:53:00
10:26 AM,28.4,21.2,74,30.01,6.0,West,12.7,-,0.00,Snow,Light Snow,260,2013-02-24 15:26:00
10:53 AM,28.9,23.0,78,30.04,3.0,West,12.7,-,0.00,Snow,Light Snow,260,2013-02-24 15:53:00
11:53 AM,30.9,23.0,72,30.05,9.0,West,16.1,-,0.00,,Mostly Cloudy,260,2013-02-24 16:53:00
12:53 PM,32.0,24.1,73,30.05,10.0,West,13.8,-,N/A,,Mostly Cloudy,280,2013-02-24 17:53:00
1:53 PM,32.0,23.0,69,30.05,10.0,West,16.1,-,N/A,,Mostly Cloudy,280,2013-02-24 18:53:00
2:00 PM,32.0,23.0,69,30.03,10.0,West,17.3,-,N/A,,Scattered Clouds,280,2013-02-24 19:00:00
2:53 PM,32.0,24.1,73,30.06,10.0,West,13.8,-,N/A,,Overcast,280,2013-02-24 19:53:00
3:10 PM,33.8,24.8,70,30.04,10.0,West,13.8,-,N/A,,Overcast,280,2013-02-24 20:10:00
3:53 PM,32.0,26.1,79,30.08,10.0,West,13.8,-,N/A,,Overcast,280,2013-02-24 20:53:00
4:21 PM,33.8,26.6,75,30.06,10.0,West,10.4,-,N/A,,Mostly Cloudy,280,2013-02-24 21:21:00
4:53 PM,33.1,26.1,75,30.09,10.0,West,8.1,-,N/A,,Partly Cloudy,280,2013-02-24 21:53:00
5:53 PM,32.0,26.1,79,30.11,10.0,West,11.5,-,N/A,,Overcast,270,2013-02-24 22:53:00
6:53 PM,32.0,27.0,82,30.13,10.0,West,8.1,-,N/A,,Overcast,260,2013-02-24 23:53:00
7:53 PM,30.9,27.0,85,30.14,10.0,West,6.9,-,N/A,,Overcast,260,2013-02-25 00:53:00
8:53 PM,32.0,27.0,82,30.15,10.0,West,5.8,-,N/A,,Overcast,260,2013-02-25 01:53:00
9:53 PM,30.9,27.0,85,30.15,10.0,WSW,4.6,-,N/A,,Overcast,250,2013-02-25 02:53:00
10:53 PM,30.0,27.0,88,30.16,10.0,WSW,6.9,-,N/A,,Overcast,250,2013-02-25 03:53:00
11:53 PM,30.0,27.0,88,30.16,9.0,West,6.9,-,N/A,,Partly Cloudy,260,2013-02-25 04:53:00